Regional Weather Roundup
Issued by NWS

Home | Current Version | Previous Version | Text Only | Print | Product List | Glossary On
Versions: 1 2 3 4 5 6 7 8 9 10 11 12 13 14 15 16 17 18 19 20 21 22 23 24 25 26 27 28 29 30 31 32 33 34 35 36 37 38 39 40 41 42 43 44 45 46 47 48 49 50
000
ASUS43 KTOP 230659
RWRKS

WEATHER ROUNDUP FOR KANSAS
NATIONAL WEATHER SERVICE GOODLAND KS
200 AM CDT TUE SEP 23 2014

NOTE:  "FAIR" INDICATES FEW OR NO CLOUDS BELOW 12,000 FEET WITH NO
SIGNIFICANT WEATHER AND/OR OBSTRUCTIONS TO VISIBILITY.

KSZ001>006-013>018-027>032-041>047-230800-
NORTHWEST KANSAS

CITY           SKY/WX    TMP DP  RH WIND       PRES   REMARKS
GOODLAND       CLOUDY    58  56  93 S22G31    30.09R
HILL CITY      LGT RAIN  59  55  87 N12       30.18R
RUSSELL        CLOUDY    65  47  52 S17G24    30.11S
$$

KSZ061>065-074>080-084>089-230800-
SOUTHWEST KANSAS

CITY           SKY/WX    TMP DP  RH WIND       PRES   REMARKS
DODGE CITY     MOCLDY    65  43  44 S18G28    30.15R
ELKHART          N/A     65  57  75 S13         N/A
GARDEN CITY    PTCLDY    63  48  58 S15       30.12S
GREAT BEND     CLOUDY    64  45  48 S16       30.14R
LIBERAL        PTCLDY    66  50  55 S16       30.16S
$$

KSZ066>073-081>083-090>101-230800-
SOUTHEAST KANSAS

CITY           SKY/WX    TMP DP  RH WIND       PRES   REMARKS
CHANUTE        CLEAR     56  53  90 E6        30.22R
COFFEYVILLE    PTCLDY    55  53  93 E5        30.21R
HUTCHINSON     MOCLDY    62  50  64 SE10      30.17S
NEWTON         MOCLDY    57  46  67 SE9       30.20S
PARSONS        CLEAR     55  53  93 CALM      30.22S
WICHITA INTL   MOCLDY    63  50  62 SE12      30.18S
WICHITA JABRA  MOCLDY    59  51  75 SE9       30.18F
WINFIELD       MOCLDY    60  53  77 SE3       30.21R
$$

KSZ007>012-019>026-033>040-048>060-102>105-230800-
NORTHEAST KANSAS

CITY           SKY/WX    TMP DP  RH WIND       PRES   REMARKS
CONCORDIA      MOCLDY    62  51  67 S12       30.15S
EMPORIA        PTCLDY    56  52  86 S7        30.21S
LAWRENCE       CLEAR     50  48  93 CALM      30.23R
MANHATTAN      MOCLDY    60  52  74 SW3       30.18S
OLATHE IND     PTCLDY    53  50  89 SE3       30.23S
OLATHE EXE     PTCLDY    55  52  89 CALM      30.23R
SALINA         CLOUDY    64  51  62 SE14      30.15F
TOPEKA BILLARD PTCLDY    57  53  86 E3        30.21S
TOPEKA FORBES  PTCLDY    54  51  90 SE5       30.21S
$$



USA.gov is the U.S. government's official web portal to all federal, state and local government web resources and services.